Location: Skalnate Pleso
(49.1889°N, 20.2450°E)
Time: 12:20:30
(UTC+01:00)

NOSS 3-4 (C) - Pass Details

Date: 19 November 2019
Orbit: 907 x 1306 km, 63.4° (Epoch: 11 December)

Event Time Altitude Azimuth Distance (km) Brightness Sun altitude
Exits shadow 04:15:08 36° 325° (NW) 1,666 4.4 -25.7°
Maximum altitude 04:18:17 79° 46° (NE) 1,163 3.8 -25.2°
Drops below altitude 10° 04:25:54 10° 134° (SE) 3,166 6.8 -24.0°
Sets 04:28:47 0° 135° (SE) 4,175 7.5 -23.5°
